Back to catalog

STARLINK-32289

AliveCommunicationsVLEO
NORAD 60737·PAYLOAD·🇺🇸 United States

Launched Aug 28, 2024 from Cape Canaveral Space Force Station

Loading…

Next Passes (next 24 hours)

TLE

FreshSource: CelesTrak SupGP

Epoch: Sep 14, 2026, 21:32 UTC

1 60737C 24152T   26257.89770833 -.00032541  00000+0 -96163-3 0  2575
2 60737  53.1568 107.6785 0001301  88.5548   4.7623 15.34399742    10

Track STARLINK-32289 in real time with AllMySat

Download on the App Store